• Join FlightAware (Why Join?)
  • Login
  • US Flag 
Gobble Gobble! 
06:01AM EST


 

Airport Tracker/Info


-or-


 

Live Flight TrackerFlight Track Log ✈ EJA831 ✈ 21-Jun-2013 ✈ KOWD - KJFK

Flight Track Log - Related Links

Times and Time Zones

All times are in EDT time to prevent confusion due to time zone crossing. See the EJA831 flight status page for this flight to view local times or setup timezone preferences in your user account.

Time Position Orientation Groundspeed Altitude Reporting Facility
EDT Latitude Longitude Course Direction KTS MPH feet Rate Location/Type
10:15AM 42.1667 -71.1500 158° South 191 220 1,300  Level KA90
10:16AM 42.1092 -71.1192 158° South 248 285 4,600 3,420 Climbing Boston Center
10:17AM 42.0442 -71.0758 154° Southeast 289 333 8,300 3,600 Climbing Boston Center
10:18AM 41.9767 -71.0103 144° Southeast 289 333 11,900 1,860 Climbing Boston Center
10:19AM 41.9233 -70.9111 126° Southeast 313 360 12,000  Climbing Boston Center
10:20AM 41.8739 -70.8203 126° Southeast 333 383 11,900 -60 Descending Boston Center
10:21AM 41.7903 -70.7861 163° South 316 364 11,900  Level Boston Center
10:22AM 41.7058 -70.8578 212° Southwest 277 319 12,000  Climbing Boston Center
10:23AM 41.6525 -70.9231 222° Southwest 258 297 12,000  Level Boston Center
10:24AM 41.5950 -70.9994 225° Southwest 284 327 12,000  Level Boston Center
10:25AM 41.5356 -71.0811 226° Southwest 303 349 12,000  Level Boston Center
10:26AM 41.4803 -71.1572 226° Southwest 308 354 12,000  Level Boston Center
10:27AM 41.4103 -71.2472 224° Southwest 313 360 12,000  Level Boston Center
10:28AM 41.3569 -71.3256 228° Southwest 319 367 12,000  Level Boston Center
10:29AM 41.2869 -71.4181 225° Southwest 324 373 12,000  Level Boston Center
10:30AM 41.2314 -71.4933 226° Southwest 324 373 12,000  Level Boston Center
10:31AM 41.1675 -71.5908 229° Southwest 324 373 12,100  Climbing Boston Center
10:32AM 41.1558 -71.6875 261° West 307 353 12,000  Descending Boston Center
10:33AM 41.1378 -71.8144 259° West 307 353 12,100  Climbing Boston Center
10:34AM 41.1197 -71.9414 259° West 307 353 12,000 -60 Descending Boston Center
10:35AM 41.1075 -72.0517 262° West 307 353 12,000  Level Boston Center
10:36AM 41.0872 -72.1592 256° West 307 353 12,000  Level Boston Center
10:37AM 41.0436 -72.2586 240° Southwest 307 353 12,000  Level Boston Center
10:38AM 40.9978 -72.3575 238° Southwest 318 366 12,000  Level Boston Center
10:39AM 40.9519 -72.4567 239° Southwest 318 366 12,000  Level Boston Center
10:40AM 40.9061 -72.5528 238° Southwest 318 366 12,000  Level Boston Center
10:41AM 40.8622 -72.6597 242° Southwest 318 366 12,000  Level Boston Center
10:42AM 40.8167 -72.7500 236° Southwest 293 337 12,100  Climbing New York TRACON
10:43AM 40.7833 -72.8333 242° Southwest 298 343 12,100 -360 Level New York TRACON
10:45AM 40.7500 -72.9500 249° West 285 328 11,400 -1,380 Descending New York TRACON
10:46AM 40.7333 -73.0500 258° West 277 319 9,300 -2,100 Descending New York TRACON
10:47AM 40.7167 -73.1500 258° West 275 316 7,300 -1,800 Descending New York TRACON
10:48AM 40.7000 -73.2333 255° West 276 318 5,700 -1,140 Descending New York TRACON
10:49AM 40.7500 -73.3167 308° West 266 306 5,100 -360 Descending New York TRACON
10:50AM 40.7833 -73.4000 298° West 268 308 5,000 -900 Descending New York TRACON
10:51AM 40.8167 -73.4833 298° West 257 296 3,300 -1,320 Descending New York TRACON
10:51AM 40.8167 -73.5667 270° West 256 295 2,500 -600 Descending New York TRACON
10:53AM 40.7667 -73.6500 232° Southwest 242 278 2,100 -420 Descending New York TRACON